Location: Larch Mountain
(45.5297°N, 122.0872°W)
Time: 04:49:13
(UTC-07:00)

ISS - All Passes

Search period start: 30 September 2014 00:00
Search period end: 10 October 2014 00:00
Orbit: 413 x 416 km, 51.6° (Epoch: 30 September)

Date Brightness Start Highest point End Pass type
(mag) Time Alt. Az. Time Alt. Az. Time Alt. Az.
30 Sep - 00:01:34 10° WSW 00:04:54 84° NNW 00:08:14 10° ENE night (unlit)
30 Sep - 01:38:55 10° WNW 01:41:55 30° N 01:44:55 10° NE night (unlit)
30 Sep - 03:16:10 10° NW 03:19:12 32° NNE 03:22:14 10° ENE night (unlit)
30 Sep - 04:52:49 10° WNW 04:56:10 80° SSW 04:59:29 10° SE visible
30 Sep - 06:30:51 10° WSW 06:32:22 13° SW 06:33:53 10° SSW visible
30 Sep - 23:12:33 10° SW 23:15:50 62° SSE 23:19:08 10° ENE night (unlit)
01 Oct - 00:49:36 10° W 00:52:41 35° NNW 00:55:48 10° NE night (unlit)
01 Oct - 02:27:01 10° NW 02:29:58 28° N 02:32:55 10° ENE night (unlit)
01 Oct - 04:03:44 10° WNW 04:07:04 67° NNE 04:10:22 10° ESE visible
01 Oct - 05:40:56 10° W 05:43:29 21° SW 05:46:02 10° S visible
01 Oct - 22:23:42 10° SSW 22:26:48 37° SE 22:29:55 10° ENE night (unlit)
02 Oct - 00:00:16 10° W 00:03:29 44° NNW 00:06:42 10° NE night (unlit)
02 Oct - 01:37:47 10° WNW 01:40:42 27° N 01:43:36 10° ENE night (unlit)
02 Oct - 03:14:39 10° NW 03:17:54 47° NNE 03:21:08 10° E night (unlit)
02 Oct - 04:51:29 10° WNW 04:54:32 33° SW 04:57:33 10° SSE visible
02 Oct - 21:35:07 10° SSW 21:37:48 23° SE 21:40:31 10° E night (unlit)
02 Oct - 23:10:59 10° WSW 23:14:17 62° NNW 23:17:36 10° ENE night (unlit)
03 Oct - 00:48:28 10° WNW 00:51:24 28° N 00:54:20 10° ENE night (unlit)
03 Oct - 02:25:32 10° NW 02:28:40 36° NNE 02:31:47 10° E night (unlit)
03 Oct - 04:02:13 10° WNW 04:05:29 55° SW 04:08:44 10° SE night (unlit)
03 Oct - 20:47:00 10° SSE 20:48:51 14° SE 20:50:42 10° E night (unlit)
03 Oct - 22:21:47 10° WSW 22:25:06 88° SSE 22:28:27 10° ENE night (unlit)
03 Oct - 23:59:04 10° WNW 00:02:05 31° N 00:05:06 10° NE night (unlit)
04 Oct - 01:36:22 10° NW 01:39:23 31° N 01:42:23 10° ENE night (unlit)
04 Oct - 03:13:01 10° WNW 03:16:22 89° SSW 03:19:41 10° ESE night (unlit)
04 Oct - 04:50:45 10° W 04:52:37 14° SW 04:54:29 10° SSW night (unlit)
04 Oct - 21:32:43 10° SW 21:35:58 55° SE 21:39:14 10° ENE night (unlit)
04 Oct - 23:09:39 10° W 23:12:47 37° NNW 23:15:55 10° NE night (unlit)
05 Oct - 00:47:06 10° WNW 00:50:02 28° N 00:52:59 10° ENE night (unlit)
05 Oct - 02:23:51 10° WNW 02:27:10 61° NNE 02:30:27 10° ESE night (unlit)
05 Oct - 04:00:55 10° W 04:03:38 23° SW 04:06:20 10° SSE night (unlit)
05 Oct - 20:43:50 10° SSW 20:46:52 33° SE 20:49:54 10° ENE visible
05 Oct - 22:20:15 10° W 22:23:29 47° NNW 22:26:44 10° NE night (unlit)
05 Oct - 23:57:46 10° WNW 00:00:40 27° N 00:03:35 10° ENE night (unlit)
06 Oct - 01:34:40 10° NW 01:37:53 44° NNE 01:41:06 10° E night (unlit)
06 Oct - 03:11:27 10° WNW 03:14:34 38° SW 03:17:40 10° SSE night (unlit)
06 Oct - 19:55:15 10° S 19:57:47 20° SE 20:00:20 10° E visible
06 Oct - 21:30:53 10° WSW 21:34:12 68° NNW 21:37:32 10° ENE visible
06 Oct - 23:08:20 10° WNW 23:11:17 28° N 23:14:14 10° NE night (unlit)
07 Oct - 00:45:27 10° NW 00:48:33 34° NNE 00:51:39 10° E night (unlit)
07 Oct - 02:22:07 10° WNW 02:25:25 63° SSW 02:28:42 10° SE night (unlit)
07 Oct - 19:07:18 10° SSE 19:08:46 12° SE 19:10:14 10° ESE visible
07 Oct - 20:41:38 10° SW 20:44:57 79° SSE 20:48:17 10° ENE visible
07 Oct - 22:18:51 10° WNW 22:21:53 32° NNW 22:24:56 10° NE visible
07 Oct - 23:56:10 10° NW 23:59:10 30° N 00:02:09 10° ENE night (unlit)
08 Oct - 01:32:50 10° WNW 01:36:11 82° NNE 01:39:30 10° ESE night (unlit)
08 Oct - 03:10:20 10° W 03:12:29 16° SW 03:14:38 10° S night (unlit)
08 Oct - 19:52:31 10° SW 19:55:44 48° SE 19:58:58 10° ENE visible
08 Oct - 21:29:20 10° W 21:32:30 39° NNW 21:35:39 10° NE visible
08 Oct - 23:06:49 10° WNW 23:09:44 27° N 23:12:40 10° ENE night (unlit)
09 Oct - 00:43:35 10° WNW 00:46:53 56° NNE 00:50:09 10° ESE night (unlit)
09 Oct - 02:20:33 10° W 02:23:24 26° SW 02:26:14 10° SSE night (unlit)
09 Oct - 19:03:37 10° SSW 19:06:33 29° SE 19:09:30 10° ENE visible
09 Oct - 20:39:51 10° W 20:43:07 52° NNW 20:46:23 10° NE visible
09 Oct - 22:17:21 10° WNW 22:20:17 27° N 22:23:12 10° ENE visible
09 Oct - 23:54:19 10° NW 23:57:30 41° NNE 00:00:00 15° E night (unlit)
